Location: Stoke Bliss
(52.2667°N, 2.5167°W)
Time: 02:14:32
(UTC+00:00)

Meteor 1-19 Rocket - Pass Details

Date: 18 June 2021
Orbit: 808 x 927 km, 81.2° (Epoch: 02 August)

Event Time Altitude Azimuth Distance (km) Brightness Sun altitude
Rises 02:47:37 0° 352° (N) 3,570 8.2 -7.0°
Reaches altitude 10° 02:51:12 10° 14° (NNE) 2,635 8.1 -6.7°
Maximum altitude 02:54:51 16° 51° (NE) 2,216 7.8 -6.3°
Drops below altitude 10° 02:58:30 10° 89° (E) 2,635 7.4 -6.0°
Sets 03:02:03 0° 110° (ESE) 3,569 7.7 -5.7°
